Location: Cartignies
(50.0929°N, 3.8447°E)
Time: 14:33:05
(UTC+00:00)

BREEZE-M DEB (TANK) - Pass Details

Date: 12 January 2026
Orbit: 317 x 11663 km, 49.7° (Epoch: 16 February)

Event Time Altitude Azimuth Distance (km) Brightness Sun altitude
Rises 16:23:46 0° 221° (SW) 2,815 7.4 -3.2°
Reaches altitude 10° 16:25:16 10° 215° (SW) 2,227 6.5 -3.4°
Maximum altitude 16:29:58 52° 138° (SE) 1,597 4.4 -4.0°
Drops below altitude 10° 16:45:49 10° 69° (ENE) 7,128 7.1 -6.3°
Enters shadow 16:48:32 - 68° (ENE) 8,029 7.3 -6.7°
